Wind_Speed
24 24 21 21 20 20 19 17 17 16 15 14 14 13 12 12 11 10 11 14 17 16 16 16 15 15 14 14 14 13 11 11 10 9 10 10 14 13 9 10 12 9 8 9 10 9 6 5 6 8 8 5 3 1 2 3 3 4 3 3 1 3 4 5 7 7 5 2 4 4 4 8 4 3 1 1 4 3 1 3 3 3 3 3 5 5 6 20
25 24 21 22 20 19 19 18 17 15 15 15 14 14 12 11 10 10 10 14 17 16 15 15 14 14 14 13 12 11 11 10 7 7 14 14 10 12 11 11 13 10 9 10 11 11 7 3 5 8 6 3 2 3 2 2 4 4 3 3 3 5 5 6 7 5 3 1 4 4 2 5 5 4 2 2 2 2 2 3 4 4 5 2 4 1 14 23
25 23 21 22 20 19 20 19 17 16 16 15 14 13 12 11 11 10 11 14 16 15 14 14 14 14 13 13 11 10 9 5 2 7 16 16 10 11 11 12 13 10 10 10 11 9 9 10 11 9 5 3 2 3 2 2 2 2 4 2 5 6 4 4 6 5 4 3 5 4 3 2 3 3 1 3 2 0 5 5 1 4 8 4 3 5 17 20
25 24 21 21 20 19 20 18 17 16 16 15 14 14 13 13 12 10 11 14 15 14 13 13 14 14 13 12 10 10 7 1 3 7 13 16 13 12 11 12 12 10 9 9 9 8 10 13 10 6 5 4 3 3 2 1 0 2 4 4 6 4 2 3 5 5 4 4 5 5 4 1 3 2 1 5 5 3 6 7 8 9 9 6 3 7 15 17
24 23 21 20 20 20 19 18 17 16 16 15 14 14 13 12 11 10 12 14 14 14 12 13 14 13 13 11 10 11 6 1 4 6 10 15 15 13 11 11 12 11 10 10 11 11 12 10 7 6 5 3 2 3 0 1 2 2 1 4 5 3 1 1 3 3 4 4 5 7 6 3 2 2 3 8 6 6 7 7 9 10 8 9 8 10 12 14
24 22 21 20 20 20 19 18 17 16 15 14 14 12 11 10 9 10 12 14 14 13 12 13 13 13 13 9 10 10 6 1 3 3 11 16 16 13 11 11 11 11 10 11 12 11 8 5 5 4 3 3 4 3 2 2 2 2 2 2 3 3 1 2 2 2 4 6 7 6 4 3 3 1 2 7 8 7 5 4 6 7 7 9 11 13 11 11
24 22 21 21 20 19 19 18 17 16 14 13 13 11 10 10 9 10 12 13 13 13 13 12 12 13 11 8 9 5 2 4 3 3 12 16 16 13 11 11 10 11 12 13 11 7 5 5 5 5 5 4 4 3 2 1 4 4 2 2 2 3 1 3 2 1 4 6 5 4 3 3 4 3 1 4 11 7 4 3 3 5 10 11 10 12 12 14
25 23 22 23 22 19 19 18 17 16 13 12 11 11 11 9 9 10 11 12 12 13 12 12 13 13 11 9 7 2 1 4 1 6 11 14 14 12 11 11 11 12 13 13 11 8 6 7 5 4 4 2 5 4 3 3 4 2 3 3 2 1 3 4 2 3 2 3 1 4 4 1 5 3 1 7 11 7 4 2 3 6 9 9 10 11 11 12
25 24 23 23 23 20 18 17 15 16 13 12 11 11 10 8 9 10 10 11 12 13 12 13 14 13 12 8 5 3 4 4 3 8 10 12 12 12 11 10 12 13 12 10 10 10 6 4 5 5 4 3 5 5 4 4 1 3 4 3 3 1 5 4 2 5 3 1 2 4 2 3 3 1 3 8 8 6 2 5 5 7 7 7 9 10 11 10
26 24 22 22 23 21 20 18 16 15 13 12 11 10 9 8 8 9 10 10 11 12 12 14 14 14 12 6 5 3 5 2 6 9 10 11 11 12 11 10 13 12 11 7 8 10 6 6 7 5 6 3 4 4 4 5 3 3 6 5 4 2 5 4 2 4 4 1 3 3 2 4 2 1 4 5 5 4 2 5 3 6 7 8 7 8 10 11
26 24 21 21 23 22 22 20 17 15 13 13 11 9 8 7 8 8 9 9 11 12 12 14 13 14 10 4 6 4 3 3 8 10 11 10 10 12 9 9 11 10 10 6 8 10 4 8 11 6 2 2 4 3 1 3 4 4 6 5 6 5 3 5 3 4 4 1 2 3 2 4 2 1 6 5 5 2 5 3 2 5 6 7 7 6 8 11
26 23 20 20 23 23 22 21 18 15 14 12 10 8 7 8 8 8 7 9 10 12 13 14 14 13 7 3 3 5 3 4 8 10 11 10 10 11 7 8 8 7 9 5 8 9 4 11 14 7 1 4 5 2 2 3 5 3 4 4 5 7 3 4 2 3 3 1 2 2 1 5 2 5 8 4 5 3 4 3 4 6 6 5 5 5 6 9
25 22 20 21 23 23 22 21 17 14 13 12 10 8 7 8 8 7 7 8 10 11 13 14 14 12 5 1 4 6 4 5 7 9 10 9 9 9 7 7 6 5 6 5 8 8 6 12 12 7 3 6 3 2 4 4 4 2 3 4 1 6 4 4 2 3 1 1 4 1 1 7 7 10 8 3 5 3 1 5 6 6 6 5 5 5 6 9
24 22 20 20 23 22 22 19 15 13 13 11 10 8 8 8 8 8 8 8 10 11 12 13 14 10 3 2 4 5 6 5 6 9 10 10 9 9 7 6 6 5 3 4 8 8 8 11 11 7 3 4 3 2 5 6 4 2 2 2 1 1 4 6 3 0 3 0 4 4 2 7 8 10 7 5 4 2 5 7 6 6 6 6 5 5 7 9
24 22 20 20 21 21 20 17 14 13 12 11 10 8 8 8 8 8 8 9 10 10 11 12 12 7 2 3 3 4 7 5 7 10 10 10 10 7 6 7 7 6 4 5 9 9 9 11 10 6 1 2 4 6 4 4 4 3 2 1 3 3 5 7 3 1 3 1 4 6 2 7 8 9 7 4 3 4 6 7 6 7 7 6 6 6 7 8
24 22 20 20 20 19 18 16 14 13 11 10 10 9 9 8 8 8 8 9 10 10 10 10 9 6 2 1 1 2 5 5 7 10 9 10 9 7 9 10 9 8 8 8 11 10 8 8 5 3 3 3 4 6 5 3 3 4 2 3 2 3 3 4 1 2 0 0 3 2 3 4 4 7 7 3 5 4 2 7 7 7 7 6 6 6 7 7
24 22 21 20 20 18 17 15 14 13 11 11 10 10 10 9 8 9 9 11 12 10 9 8 7 3 1 1 1 2 3 5 8 9 10 9 8 10 12 9 7 8 10 9 8 6 6 5 1 0 3 4 3 6 5 0 3 3 2 2 3 3 2 2 2 3 4 2 1 2 2 6 6 8 8 4 3 4 5 7 8 7 7 7 6 6 6 7
25 23 21 20 19 18 16 15 14 13 13 12 11 11 12 11 11 11 12 14 14 10 5 3 4 2 3 3 3 3 3 6 9 9 9 8 8 11 10 6 6 8 8 5 3 3 4 4 2 2 3 3 3 5 5 5 5 5 3 3 2 2 3 3 3 2 3 2 2 1 3 9 11 10 10 7 1 2 7 7 7 8 8 8 6 6 7 7
26 23 21 19 18 17 15 15 14 14 14 13 14 17 16 13 12 10 9 10 8 5 2 3 4 3 4 5 3 3 6 9 10 7 8 9 9 9 8 7 7 7 5 2 1 1 2 3 4 3 3 3 5 6 7 8 8 9 6 4 5 4 4 5 4 4 0 3 3 4 5 8 11 10 11 9 1 1 8 6 7 8 8 8 7 7 7 8
26 23 21 19 18 16 14 14 14 15 15 17 19 17 11 8 7 4 2 1 2 3 2 4 5 3 0 1 4 9 10 8 5 4 7 8 10 10 6 5 5 6 4 4 2 1 3 4 3 5 7 7 8 6 6 5 6 7 5 4 4 4 3 3 3 5 1 3 3 3 4 8 10 12 13 10 4 4 9 9 8 9 8 8 8 9 9 10
26 23 21 19 18 15 13 14 15 16 18 21 19 9 4 7 5 3 3 3 4 3 1 4 3 2 0 2 6 9 7 5 4 3 6 7 9 10 1 2 5 3 0 3 3 2 4 4 7 6 7 7 6 6 7 6 6 6 6 5 1 2 3 2 1 4 3 1 3 3 4 9 11 12 12 9 7 7 9 9 10 10 9 8 8 10 10 9
26 23 22 19 17 15 13 14 15 17 19 20 12 2 3 5 5 8 7 1 3 2 1 2 2 2 2 3 5 3 3 4 3 1 4 5 5 6 1 3 7 4 1 3 4 2 2 5 8 5 5 7 7 6 8 7 6 5 4 5 2 2 2 3 2 4 4 1 3 3 4 9 11 11 12 10 9 9 8 8 9 9 9 9 9 10 10 10
26 24 22 19 17 15 14 15 16 17 19 17 9 3 3 4 8 13 8 3 1 1 3 1 3 2 2 2 4 2 4 4 4 3 3 5 3 3 4 5 6 5 3 5 6 6 4 6 6 6 8 9 6 4 8 7 4 4 4 5 3 2 1 1 2 3 4 2 1 2 4 8 8 7 9 8 6 7 6 7 9 8 9 11 10 8 8 10
27 24 21 20 18 14 14 17 17 16 17 16 11 7 7 7 10 13 5 3 1 1 1 1 2 3 2 2 4 3 3 2 4 4 4 6 4 2 5 5 5 5 4 6 8 7 5 4 1 8 6 8 7 2 6 6 2 1 3 5 4 3 4 3 1 1 3 3 2 2 4 6 5 5 7 5 4 6 5 6 8 7 8 10 9 9 8 9
27 24 22 21 17 15 18 18 15 16 15 12 11 9 7 8 11 10 4 3 1 2 1 1 1 3 4 3 2 4 3 1 1 2 4 6 6 3 3 2 3 5 5 6 7 5 4 3 4 9 4 5 8 4 5 7 4 2 4 6 7 7 7 3 2 3 3 4 3 4 3 5 5 4 7 5 7 7 5 5 8 8 7 7 8 10 8 7
28 24 23 21 18 20 20 12 13 16 11 9 13 10 5 8 11 7 4 4 2 1 1 2 1 4 6 2 1 3 3 1 1 1 3 5 3 3 3 1 2 3 5 5 5 2 1 1 4 7 6 6 7 5 6 6 6 2 4 6 7 7 8 6 5 4 1 2 2 3 2 4 6 5 7 5 8 10 8 6 8 8 8 7 7 8 6 6
27 25 24 20 21 26 17 6 14 16 7 9 15 11 6 8 9 4 4 4 3 2 4 1 1 5 7 2 2 6 3 3 2 3 3 3 1 3 4 4 2 2 3 4 2 1 3 4 4 5 6 6 6 5 6 7 7 3 3 5 8 8 8 7 6 5 2 3 3 4 3 2 5 6 7 5 6 10 10 8 9 7 8 8 7 7 7 7
26 25 23 20 26 29 12 6 18 15 6 11 16 12 8 10 8 2 5 2 2 3 4 1 1 4 3 2 3 5 2 2 5 1 2 3 1 4 3 5 5 4 1 4 4 3 2 5 6 6 5 4 5 4 5 8 6 3 2 6 7 7 7 5 6 4 0 1 4 5 2 1 6 6 5 5 4 8 9 8 9 8 8 8 7 7 6 6
26 25 22 23 30 26 8 7 20 16 10 16 18 13 12 11 6 3 3 2 1 2 2 2 3 2 1 2 3 3 2 2 2 3 2 4 2 4 4 5 6 8 3 3 6 2 1 4 6 7 5 5 3 1 1 5 3 3 5 7 6 6 6 5 5 4 2 2 4 5 2 1 5 7 4 3 1 5 7 6 7 7 7 6 7 7 6 5
26 25 25 28 30 23 9 9 19 15 12 18 18 16 14 8 4 4 3 4 2 1 1 2 3 2 5 6 1 3 2 2 1 1 2 2 3 6 3 2 6 7 4 6 4 1 1 1 1 3 3 5 4 4 3 3 4 7 6 7 7 6 5 4 3 4 3 2 6 5 3 0 3 6 4 1 2 5 3 4 6 6 7 6 6 7 6 6
26 25 29 31 30 24 9 7 18 15 13 20 20 16 11 4 3 5 6 3 3 2 1 2 2 4 10 12 5 0 2 2 1 4 3 1 3 4 2 2 4 5 3 3 2 3 3 2 0 1 1 4 6 5 5 4 4 6 4 5 5 4 4 4 4 4 2 4 6 4 3 1 3 5 3 3 5 5 3 3 5 6 7 7 7 7 7 5
28 28 32 31 27 24 10 6 17 15 15 23 19 10 6 4 2 5 4 2 3 3 4 4 4 5 12 11 6 4 4 2 1 4 5 3 4 4 4 4 4 3 1 3 2 2 2 1 1 1 1 4 6 5 5 5 4 5 5 6 5 2 3 2 3 1 3 5 3 3 2 2 5 7 6 7 8 7 6 7 7 6 7 7 8 9 8 6
27 30 33 29 24 24 13 7 16 16 19 22 13 5 5 4 7 7 4 2 2 2 4 4 2 5 11 9 5 4 3 2 3 3 2 4 5 4 1 3 6 5 3 5 4 2 1 4 2 2 1 2 5 5 3 1 0 4 6 5 4 3 2 2 4 2 3 4 3 3 2 2 5 6 9 11 9 6 6 7 7 6 7 7 7 8 9 7
27 30 32 26 23 23 14 10 15 18 21 18 7 5 5 6 7 6 6 5 1 2 2 4 6 7 8 6 5 6 3 1 4 4 2 4 6 5 4 4 4 5 4 4 3 5 4 4 3 4 2 3 4 4 6 6 3 3 3 5 5 5 5 4 4 3 4 3 3 3 2 3 3 3 6 9 7 5 5 6 6 6 7 7 5 6 7 7
29 30 29 25 22 20 15 12 15 19 20 11 4 6 9 10 6 4 7 5 1 2 3 3 8 8 5 1 1 5 3 2 4 4 3 5 6 8 7 6 6 4 6 5 3 3 4 4 4 2 2 4 5 2 4 7 3 1 2 5 3 4 5 3 3 5 3 0 2 2 3 4 3 6 7 4 4 6 5 6 5 5 7 6 5 4 5 5
33 30 25 22 21 18 15 14 16 20 16 7 5 9 9 6 4 4 5 4 4 6 7 4 4 6 4 1 1 5 1 3 4 3 4 4 3 6 7 5 7 6 5 6 3 2 3 3 4 3 3 2 3 2 2 3 3 2 2 3 4 4 8 6 1 0 3 1 3 1 3 5 3 6 8 3 4 6 4 3 3 5 6 5 5 5 4 4
29 24 17 16 19 18 15 15 17 18 11 5 8 10 4 2 3 4 4 5 5 8 10 5 1 4 6 3 5 8 3 3 4 3 4 3 2 6 7 4 5 9 7 4 2 3 5 1 3 2 2 1 1 2 4 3 3 5 3 5 4 3 5 5 2 3 4 2 4 1 4 5 2 3 6 5 5 7 5 3 1 5 4 4 4 5 3 3
16 13 8 9 18 19 15 16 17 12 5 4 10 8 1 2 3 3 3 5 7 6 6 6 3 3 6 6 6 8 6 5 5 5 4 4 4 6 9 5 4 9 7 3 1 2 5 3 3 2 2 2 3 3 3 4 3 4 4 3 4 3 2 2 2 1 1 2 4 4 3 3 4 5 4 2 6 8 7 2 1 2 2 2 2 3 5 4
8 6 3 4 15 20 18 16 14 7 3 7 11 7 2 2 1 2 3 4 6 5 5 5 2 2 5 6 6 7 7 6 8 6 4 5 5 5 10 7 3 7 8 5 3 2 4 4 2 2 1 1 3 1 5 2 3 3 3 2 2 3 4 2 3 4 3 3 3 4 4 3 6 6 5 7 8 8 7 4 4 6 7 5 2 5 6 6
3 3 1 1 7 15 19 16 8 4 5 7 7 4 1 1 1 3 3 2 3 2 4 5 3 3 4 3 3 6 5 5 8 7 4 6 5 4 7 8 5 7 7 5 4 3 3 3 3 2 3 1 2 3 6 7 3 3 3 4 2 2 2 2 1 2 4 4 3 2 3 5 6 5 7 9 8 6 6 6 7 8 7 6 4 5 6 7
2 2 1 2 2 10 14 11 4 5 5 2 2 3 1 2 3 1 1 1 2 1 2 5 4 5 5 3 3 5 4 3 6 6 3 5 6 5 6 7 8 9 6 4 4 4 2 3 4 2 0 3 3 3 3 5 5 6 5 7 6 4 4 3 2 1 3 3 4 3 3 7 6 4 5 6 6 6 6 7 8 7 6 6 5 4 6 6
2 2 1 2 4 10 9 6 2 3 3 2 2 3 1 2 3 2 0 2 2 1 2 3 3 3 5 4 4 6 6 4 5 6 4 6 8 5 4 5 9 11 9 5 3 3 3 4 4 3 3 5 3 2 2 2 2 4 3 4 6 5 5 6 5 4 2 1 2 3 2 7 6 3 4 5 5 6 6 7 9 7 6 6 5 4 4 2
2 2 2 3 7 9 5 3 3 2 2 2 1 2 1 2 3 2 2 1 2 2 2 1 2 3 3 3 4 6 8 5 6 7 4 4 5 4 3 7 11 11 8 5 3 2 2 4 4 0 3 3 4 4 2 3 2 2 3 3 5 4 3 5 5 4 4 3 3 3 2 7 6 3 3 5 5 4 5 6 8 7 6 6 5 3 3 3
2 1 3 3 6 7 3 2 5 5 3 1 2 2 1 1 2 3 3 3 2 3 3 2 3 2 3 4 5 7 9 5 5 7 3 3 4 1 1 7 10 10 7 5 6 6 4 3 5 3 1 3 4 3 3 3 1 4 4 3 5 4 6 5 2 4 2 5 7 5 4 7 6 4 3 1 0 3 5 5 5 6 6 6 4 1 2 3
1 1 2 2 3 4 2 0 1 3 3 3 4 3 2 1 1 2 4 3 2 3 3 2 1 3 3 3 4 4 7 4 3 5 3 2 3 2 3 3 7 7 3 1 5 7 5 4 5 6 6 6 6 5 4 3 3 2 2 4 5 6 8 5 3 4 3 5 7 6 6 6 5 5 3 2 3 4 6 6 5 5 6 5 2 1 4 3
1 1 0 1 2 2 1 1 1 1 3 5 5 4 4 3 1 1 3 3 2 2 2 0 2 3 2 4 5 5 7 2 2 3 5 4 3 2 3 0 2 3 0 2 7 7 3 2 5 8 10 11 10 7 4 6 6 4 4 6 7 7 9 6 4 4 6 3 4 8 9 6 5 5 3 4 6 7 7 7 6 6 5 3 3 4 5 2
1 1 2 2 1 2 2 1 2 1 2 4 4 4 6 5 1 0 0 1 2 3 2 1 2 3 4 7 6 5 7 3 1 3 4 3 1 2 3 2 3 1 2 2 5 5 4 3 7 9 12 11 7 5 5 8 9 10 9 9 9 10 10 9 8 11 7 5 6 12 8 8 9 6 7 9 8 7 8 9 8 6 4 3 4 4 3 3
0 1 1 1 0 2 2 3 6 4 1 2 1 3 7 6 5 4 1 1 0 1 2 0 2 4 6 7 6 5 6 4 2 2 2 1 2 1 3 3 2 1 2 2 0 3 5 6 7 7 11 10 5 5 6 7 8 10 11 13 13 13 13 13 15 16 9 7 14 10 10 11 12 8 10 11 9 10 10 9 7 5 3 2 2 2 3 4
1 1 1 2 1 1 2 5 8 6 3 3 0 2 7 10 8 5 2 2 0 1 3 3 4 4 4 3 4 5 7 5 4 4 3 2 2 3 2 1 1 2 2 3 1 1 4 4 4 7 9 10 5 5 6 7 7 6 9 13 14 15 17 18 18 20 15 14 16 7 9 14 12 9 11 10 8 8 5 2 4 5 3 3 3 2 0 2
1 1 0 2 2 1 2 5 8 6 4 4 3 2 4 8 9 5 2 4 4 2 3 4 3 3 4 3 4 3 4 3 4 6 6 5 3 2 3 4 3 1 1 3 2 2 3 3 2 6 4 7 4 6 6 6 6 6 7 9 11 13 16 17 18 18 13 12 14 7 6 12 7 7 10 7 4 4 2 3 7 6 5 5 5 4 4 4
2 1 2 3 1 1 3 4 5 5 4 4 4 3 4 7 8 4 1 2 5 5 5 6 5 3 3 2 3 2 2 3 5 6 7 6 5 4 3 3 5 5 4 4 3 2 4 2 2 5 4 6 3 7 7 3 3 2 5 7 11 13 14 15 14 11 9 11 13 8 9 12 5 8 8 5 3 5 7 8 9 5 3 4 4 5 5 5
2 2 1 3 1 1 2 2 4 5 4 4 5 4 4 6 5 5 2 1 2 4 6 8 7 4 2 3 4 4 5 7 8 6 5 5 4 4 3 3 4 6 6 5 3 2 5 4 2 4 5 5 2 5 7 6 4 3 8 12 16 15 13 11 8 8 11 12 10 10 12 11 4 8 8 5 6 9 10 8 6 5 3 2 5 6 6 5
Wind_Direction
186 182 181 180 176 179 181 181 184 185 184 186 185 184 187 191 198 203 202 202 205 206 205 206 208 207 207 210 215 218 223 225 220 202 204 228 229 224 234 222 205 201 194 186 181 166 126 93 99 105 104 75 14 346 40 25 68 59 83 104 178 189 207 185 181 192 166 228 224 220 187 154 199 227 181 45 50 54 47 322 310 307 267 230 278 296 166 162
185 180 179 178 176 179 180 183 185 183 182 183 182 183 186 187 195 201 199 202 204 205 205 207 209 205 205 207 212 218 220 221 218 222 223 226 229 222 227 216 203 205 195 187 189 172 134 117 121 102 78 52 355 2 35 5 68 84 109 119 217 203 211 195 177 186 164 169 188 185 160 157 193 180 138 188 279 10 142 276 338 320 273 273 316 239 162 164
181 177 175 176 176 179 182 183 181 180 180 182 183 181 183 189 196 199 200 203 202 204 205 208 210 204 203 203 209 218 210 205 236 249 232 221 222 219 212 207 202 199 192 191 197 182 152 149 135 107 65 62 13 14 66 17 52 138 118 129 236 214 227 225 185 187 186 150 150 170 142 150 225 173 142 186 193 260 195 223 260 264 254 249 315 160 160 165
175 176 175 174 176 178 180 179 177 178 179 180 182 180 184 195 199 198 200 201 200 202 202 207 209 203 200 199 206 208 185 90 264 231 223 216 214 211 203 201 197 192 196 189 183 170 141 134 118 92 77 71 353 17 102 325 200 138 123 180 229 201 208 227 198 197 192 171 155 153 129 158 240 174 155 153 141 270 244 223 201 213 217 192 211 176 165 168
174 175 176 178 180 179 178 177 177 177 177 180 181 181 186 192 194 194 198 199 198 199 198 203 206 201 197 196 204 199 157 71 252 208 205 207 203 204 198 193 190 187 189 174 159 144 128 119 92 69 74 88 34 44 179 295 97 121 183 201 202 173 156 239 212 191 153 146 132 129 146 183 180 136 158 156 169 235 236 227 214 209 192 170 172 171 169 174
174 175 178 181 181 179 178 178 179 177 179 184 184 184 181 180 183 192 196 196 196 195 194 196 199 198 194 197 203 192 159 197 283 180 186 188 189 198 192 187 184 181 178 163 152 135 116 86 82 99 80 88 118 124 212 314 65 139 268 261 201 203 241 333 291 223 145 132 141 150 173 141 108 235 187 174 211 222 212 233 237 216 175 157 154 160 170 179
175 176 177 179 178 177 178 180 181 178 181 186 186 182 175 172 179 192 193 193 194 192 191 188 191 193 185 184 189 171 161 262 313 159 175 174 181 190 184 184 180 178 174 159 148 131 110 93 105 135 97 89 145 143 163 16 44 103 180 261 199 200 264 318 331 215 161 147 173 171 130 116 161 203 99 219 238 233 231 276 260 185 152 148 152 166 180 185
178 178 179 179 179 178 178 183 183 180 183 185 183 177 172 172 181 190 189 192 194 191 190 183 184 185 175 174 167 113 287 262 256 167 172 170 176 180 178 180 175 178 176 168 161 147 130 118 139 150 100 131 159 134 136 88 36 95 174 211 145 163 295 318 27 73 119 148 147 115 110 212 205 173 106 248 252 265 278 26 86 132 139 157 168 179 187 190
179 180 182 183 182 178 177 181 180 181 184 182 180 174 171 170 179 188 187 192 194 193 189 180 181 175 173 176 129 123 229 241 197 173 169 172 175 173 176 175 174 177 172 177 174 158 155 149 174 174 138 164 145 135 147 123 244 191 151 162 121 353 322 341 44 40 34 101 62 116 95 311 233 184 276 255 266 286 310 79 100 128 148 184 182 186 190 193
180 181 183 185 184 178 178 180 179 180 180 180 180 175 171 169 174 182 186 191 193 195 188 179 177 168 177 177 107 160 234 217 188 178 170 175 173 171 174 172 172 174 166 170 177 165 170 176 173 156 127 127 129 127 145 146 186 149 114 113 87 1 329 10 61 3 359 38 27 153 190 309 286 327 266 265 312 304 111 88 120 153 178 199 195 199 197 203
181 181 181 184 183 180 180 181 180 179 178 180 183 180 174 169 171 178 185 188 190 192 186 178 171 167 180 157 125 194 241 188 185 176 173 176 172 172 171 168 168 171 166 155 180 181 179 167 148 116 114 147 128 98 184 160 111 111 124 111 19 357 348 21 58 354 351 88 29 125 162 311 354 311 233 243 332 340 138 136 199 188 212 211 206 213 206 219
182 181 180 180 181 181 183 182 178 179 180 181 183 181 174 171 172 179 185 183 185 188 182 175 169 168 168 104 160 212 219 188 187 177 178 175 168 169 162 165 167 172 175 162 184 184 168 162 137 100 155 148 129 115 179 122 89 114 123 125 342 1 11 352 24 325 348 111 331 85 20 303 245 236 239 242 344 34 127 212 241 224 238 232 227 233 221 229
183 182 180 180 182 184 187 184 179 179 180 180 181 178 175 176 173 180 187 180 180 182 179 173 168 167 152 111 219 222 211 194 189 181 179 175 165 160 152 162 166 172 185 182 176 160 147 161 133 105 122 112 128 168 126 66 70 129 73 114 359 10 345 321 356 316 65 111 317 59 257 282 255 254 256 292 336 23 153 244 249 248 252 247 240 240 240 236
183 183 182 182 184 187 190 188 180 178 179 179 180 176 175 173 172 181 183 175 173 175 176 168 163 159 144 225 225 217 214 198 190 186 178 175 161 143 140 149 157 162 168 166 158 140 143 150 115 98 101 90 135 119 60 24 33 102 66 67 64 110 262 302 334 329 138 248 343 103 198 272 268 271 276 311 324 208 241 256 253 262 264 255 247 239 248 242
182 181 180 181 185 188 192 189 179 177 177 177 175 171 173 171 175 180 173 166 163 168 168 161 160 148 103 269 251 204 207 197 187 187 178 174 158 135 131 134 133 131 122 128 136 128 134 133 99 89 84 24 97 90 45 17 25 43 110 312 347 169 254 310 332 148 158 273 25 99 211 274 271 273 279 328 34 155 230 265 272 269 266 260 257 244 250 254
181 179 179 180 184 187 190 187 178 176 174 172 170 164 165 165 167 167 161 151 147 157 155 151 164 150 108 226 230 183 200 194 182 180 175 173 161 138 126 121 110 108 109 107 115 114 105 99 76 87 112 66 91 98 67 37 4 360 108 189 251 174 263 314 329 314 348 168 5 73 215 267 285 280 287 348 61 78 266 283 287 274 269 261 252 247 248 260
181 179 179 179 182 185 186 183 176 174 170 167 165 158 152 147 151 150 141 129 125 135 140 151 167 148 90 170 170 209 201 182 172 168 168 167 156 142 129 110 91 99 102 99 105 96 57 54 59 91 67 72 105 101 88 23 254 292 51 127 219 186 208 286 283 313 22 94 267 9 231 249 275 287 293 302 52 20 317 291 290 284 280 267 252 254 249 252
182 180 179 178 181 182 182 181 176 171 167 163 153 139 129 123 126 129 127 120 109 100 102 145 147 132 243 205 180 202 169 152 154 153 156 152 147 145 130 106 104 101 88 74 71 55 26 28 71 106 50 67 128 118 147 207 198 188 170 147 209 208 205 245 249 265 20 62 215 329 274 264 276 284 289 283 160 300 283 277 285 283 277 273 265 257 251 251
182 180 179 178 180 181 181 178 174 170 163 154 139 124 112 103 100 110 128 124 109 101 124 186 159 159 216 204 165 122 118 132 139 138 139 140 142 132 106 97 104 95 95 95 63 57 68 55 69 128 147 165 184 172 177 195 172 168 176 148 158 181 226 239 246 267 36 105 232 239 245 270 280 284 288 285 149 251 278 278 277 272 270 271 265 256 253 250
182 180 178 179 180 181 184 178 174 171 161 151 143 128 115 111 94 95 165 217 183 153 172 217 185 158 176 195 134 121 114 110 111 123 135 143 141 122 75 62 74 64 107 146 142 100 91 122 177 187 184 190 191 169 144 155 143 137 133 114 148 176 242 251 262 302 1 134 252 250 261 276 274 276 277 280 316 309 279 275 270 264 262 263 261 262 256 247
182 179 179 181 179 180 183 177 175 173 164 159 155 144 155 157 132 158 188 275 235 158 193 253 184 129 59 131 149 140 117 75 52 92 138 152 145 137 53 32 105 83 175 155 134 83 87 158 211 208 186 172 156 131 111 104 90 98 135 134 141 189 226 262 262 316 350 135 269 6 331 277 265 271 271 275 293 275 256 256 261 260 260 262 261 264 263 262
181 180 181 181 177 178 182 175 174 176 171 169 175 229 211 156 122 148 148 164 225 137 59 246 118 64 0 135 169 162 87 86 76 52 156 146 140 161 176 81 131 156 201 125 113 102 125 216 225 198 144 109 93 96 98 93 91 89 116 133 155 213 229 291 317 331 2 55 269 347 334 279 264 265 265 262 261 258 248 240 248 257 261 263 257 258 268 277
182 181 180 179 175 176 179 170 170 179 178 177 193 229 167 122 127 145 131 88 201 8 41 128 137 107 27 116 193 158 87 130 159 224 194 140 129 171 137 114 137 137 141 159 146 146 179 251 237 165 133 114 93 74 96 89 82 96 108 134 179 242 165 219 291 331 7 55 275 299 297 281 280 284 277 267 262 271 272 255 252 248 249 259 264 266 269 271
182 181 177 176 174 175 173 164 168 184 186 186 204 198 139 117 148 154 118 56 154 300 9 138 145 157 134 146 188 152 107 136 159 183 183 145 136 151 143 140 132 128 173 174 150 158 198 275 175 134 134 130 126 120 125 120 92 125 146 143 161 196 177 189 238 348 6 19 23 4 315 291 306 320 290 294 324 297 297 299 279 261 252 265 277 274 260 257
180 179 175 174 174 170 162 159 174 190 187 193 206 190 132 124 161 165 102 65 170 325 315 185 90 189 178 126 163 167 129 96 150 188 172 149 142 133 140 137 129 161 181 139 131 166 226 284 118 126 124 122 132 173 185 156 152 240 217 177 171 174 165 146 92 82 38 0 1 24 349 290 313 315 271 302 342 311 314 319 288 285 288 277 273 273 264 258
179 179 175 176 172 162 156 161 192 188 179 205 199 180 155 141 159 175 93 60 274 290 158 165 120 183 178 132 148 142 117 193 311 38 120 141 137 109 131 115 55 167 168 131 130 171 204 31 90 124 133 128 137 191 211 159 135 201 230 175 148 133 130 134 118 96 102 246 324 46 120 264 311 300 270 318 338 308 312 315 294 296 301 287 273 278 277 269
181 181 177 178 170 161 157 162 181 174 171 211 192 176 180 151 153 177 75 49 276 180 135 175 15 169 173 182 156 136 164 215 112 61 83 124 95 56 125 172 101 146 166 122 142 225 135 103 82 106 114 123 148 203 212 153 134 206 234 130 124 123 132 141 111 95 191 234 330 13 109 232 296 272 275 332 331 307 316 314 308 311 306 302 292 286 278 263
182 179 177 178 170 166 166 155 165 173 191 181 172 169 162 147 152 151 88 104 252 123 130 231 96 143 151 25 78 111 219 212 123 177 348 81 105 47 104 186 152 140 137 124 177 257 107 145 172 145 117 142 180 224 195 141 125 236 207 116 119 122 124 119 95 89 11 359 313 316 53 198 269 274 304 345 309 296 307 301 307 318 314 315 312 308 301 280
179 179 177 172 169 171 191 179 169 183 191 161 158 163 150 145 150 90 91 183 201 83 111 145 121 118 99 77 64 56 12 25 111 220 352 73 82 50 114 184 133 118 64 99 165 228 67 181 190 147 138 181 187 321 157 121 113 187 141 96 78 74 78 79 88 100 50 28 244 267 354 185 266 287 313 2 265 264 279 283 293 304 313 328 332 333 335 330
181 179 176 169 169 177 188 187 181 183 176 157 152 152 142 136 129 108 178 212 143 103 54 127 167 155 134 138 57 2 63 37 2 65 32 63 35 31 96 149 99 106 40 39 100 229 320 266 200 119 148 180 137 75 53 73 127 144 113 74 59 37 35 49 55 82 65 317 252 258 308 108 269 283 269 234 224 213 234 301 309 316 333 346 345 344 342 341
185 179 176 171 173 178 170 185 190 178 163 156 146 142 134 90 77 148 202 213 113 112 82 136 187 138 152 163 170 205 92 29 320 128 132 133 58 53 116 124 73 79 39 37 46 326 0 45 223 159 132 129 102 69 40 42 93 106 90 90 81 8 9 27 1 39 101 255 260 272 297 150 215 264 256 255 259 229 205 269 290 303 321 328 333 334 329 325
183 179 177 175 176 180 184 205 188 172 159 154 140 131 121 85 194 197 202 179 145 187 175 173 201 171 169 169 156 161 132 84 204 151 146 146 150 163 162 172 154 101 155 191 174 339 20 78 280 341 167 147 113 79 42 4 19 72 100 108 97 10 9 1 313 345 209 243 269 284 275 192 231 252 259 265 262 243 226 225 236 261 287 305 317 319 318 326
178 178 177 177 178 185 200 205 185 172 157 151 132 85 88 136 209 207 190 200 196 187 146 139 159 156 160 159 158 165 122 136 187 158 136 137 161 198 247 186 151 124 180 180 136 137 263 305 312 109 236 195 142 129 132 231 224 125 138 132 128 128 105 250 265 288 254 257 294 287 270 256 265 263 253 250 243 226 228 232 235 253 272 282 288 293 299 313
171 175 178 177 178 189 202 194 186 173 152 145 125 94 128 191 206 173 175 213 254 49 74 111 114 129 153 161 182 175 117 160 179 129 112 130 153 196 226 219 167 104 112 141 149 167 182 266 234 168 211 183 164 175 155 145 140 165 159 130 145 157 153 203 217 205 234 271 309 298 272 196 202 267 250 241 253 258 253 264 271 275 280 285 274 263 278 291
167 170 176 177 182 196 199 183 180 170 153 138 117 147 184 208 202 161 177 195 187 60 41 85 118 136 167 48 208 194 143 166 178 123 146 167 174 192 192 200 196 137 128 158 198 172 169 244 260 277 270 156 163 220 128 112 112 232 127 106 158 184 138 133 180 174 169 324 304 266 243 212 204 284 277 250 282 290 279 284 301 298 292 309 310 272 272 289
171 174 177 182 190 195 185 173 171 168 158 129 143 185 206 206 188 187 172 147 146 132 103 79 94 137 173 56 219 223 153 114 160 144 179 194 202 198 190 197 192 180 170 159 164 167 163 256 312 348 353 96 163 208 111 120 171 160 128 169 213 169 113 112 192 75 80 203 266 219 249 288 323 292 294 322 298 298 299 287 307 297 297 328 320 294 304 330
167 173 175 182 190 184 170 163 163 165 157 134 179 200 206 155 165 172 145 122 144 139 124 137 168 155 172 171 193 205 183 122 154 165 185 199 231 197 192 216 191 191 201 154 159 201 156 154 333 34 75 349 275 130 65 34 117 123 175 205 190 118 94 109 156 9 42 233 275 274 232 283 331 268 315 339 281 275 274 248 312 301 312 6 322 307 343 355
147 151 144 164 175 167 152 153 157 154 125 150 201 216 173 132 172 160 150 136 136 132 136 162 172 151 175 184 189 189 180 167 172 178 176 191 242 202 177 197 197 188 195 143 149 212 133 131 321 23 135 305 349 93 94 6 47 122 180 174 117 135 154 92 138 167 132 229 281 301 266 256 201 223 298 292 231 244 249 224 87 246 184 94 337 25 60 63
122 121 88 148 165 157 146 147 149 132 123 186 208 222 183 142 207 206 198 151 122 123 159 179 164 125 176 181 172 178 188 182 171 178 183 185 235 217 177 184 195 183 181 143 150 194 124 135 243 321 270 294 13 114 186 215 19 50 106 114 81 129 162 159 150 165 175 195 254 309 319 264 225 218 215 216 220 224 219 182 171 201 177 155 144 89 90 94
72 98 87 64 162 163 153 141 131 139 184 203 204 201 167 126 208 246 232 173 124 120 168 182 161 144 166 166 155 175 191 183 172 183 201 185 205 238 199 187 173 170 165 121 127 165 113 139 191 308 335 204 184 220 194 176 154 106 122 161 176 74 119 159 103 120 139 161 189 272 298 270 249 210 196 215 225 222 214 186 184 197 181 180 179 120 109 99
11 77 102 359 129 164 151 132 134 186 192 219 167 161 186 152 152 226 310 101 115 85 142 151 146 149 157 155 165 174 161 160 181 188 208 199 200 225 213 184 158 151 142 115 141 170 149 152 161 140 250 200 216 260 214 182 172 163 169 181 175 144 123 147 247 232 121 144 169 176 263 271 256 205 204 227 224 223 219 179 170 189 192 201 199 141 113 96
40 95 334 354 127 148 143 134 164 170 169 209 170 147 139 123 132 156 152 71 87 71 82 108 123 145 164 164 160 165 157 160 190 191 209 216 204 211 213 161 142 149 151 141 161 170 127 109 118 147 212 210 239 289 233 207 147 144 186 189 170 163 140 153 210 220 124 135 144 117 264 271 262 218 213 238 243 248 230 168 153 178 202 209 195 141 95 70
54 107 23 42 120 131 123 151 181 159 187 221 170 79 80 110 116 144 178 128 106 110 81 114 156 158 182 171 144 166 173 172 193 197 213 220 206 224 206 152 144 153 157 148 156 160 124 112 117 159 298 311 330 342 11 27 60 148 234 189 166 188 152 148 183 169 145 181 145 90 277 267 274 270 234 243 256 255 233 183 158 171 202 215 193 129 55 2
42 67 9 34 123 131 120 181 191 183 181 116 83 84 48 94 124 143 171 184 162 141 134 163 178 163 174 153 138 174 187 183 199 205 205 196 201 288 146 165 163 160 167 183 177 175 189 163 133 119 32 354 344 347 337 320 230 202 225 194 176 152 101 100 119 109 157 208 162 147 237 253 271 307 334 322 209 188 211 216 185 172 192 211 193 100 336 310
60 63 344 2 103 118 116 229 172 156 144 125 137 153 125 65 110 156 153 154 159 153 150 175 157 113 127 135 111 163 188 176 180 194 186 195 220 11 35 199 193 176 188 223 154 161 184 179 152 156 174 194 204 209 223 217 187 198 202 180 178 147 137 154 127 116 220 224 159 173 232 250 283 318 354 76 140 189 222 251 251 209 206 214 181 237 266 244
124 116 190 79 68 80 96 50 47 112 154 156 163 174 156 141 300 315 128 143 171 139 108 110 134 97 105 145 129 166 198 193 70 168 179 188 215 324 356 316 176 174 159 103 139 143 140 181 190 190 200 206 200 200 175 126 140 194 182 160 168 168 170 160 113 167 208 165 167 221 228 226 253 277 259 201 189 200 213 231 245 237 233 221 180 221 250 217
128 155 157 138 109 141 145 143 164 193 207 179 173 178 168 154 146 223 114 172 178 144 83 53 148 152 168 165 155 178 196 188 77 153 165 168 184 314 334 69 98 50 19 108 152 125 103 205 211 201 220 222 184 177 176 139 161 191 175 164 175 178 176 169 186 213 188 120 232 235 204 213 238 229 221 220 207 209 215 213 219 230 233 199 187 236 298 5
98 128 153 41 83 167 171 170 165 164 237 218 152 158 169 170 169 173 175 23 90 150 137 159 235 203 183 171 162 164 170 173 204 183 134 129 150 72 14 41 65 330 39 97 153 105 132 210 212 189 227 237 168 160 191 165 174 190 178 179 181 175 180 188 210 221 184 177 239 224 160 207 232 206 212 220 201 206 215 205 205 224 238 183 191 280 353 23
68 86 347 7 47 153 128 136 147 152 175 183 142 150 173 184 187 174 130 111 133 261 170 186 232 207 183 173 142 155 171 177 202 203 163 141 146 115 88 94 358 340 98 128 165 138 153 216 200 170 222 244 196 165 192 178 178 192 188 188 182 180 190 195 211 222 207 211 239 214 168 222 228 191 212 223 196 199 204 180 222 224 192 171 194 223 145 88
118 139 116 63 62 94 118 139 148 155 169 179 204 207 176 189 191 173 141 150 163 211 188 184 204 164 148 140 112 150 198 176 177 194 172 151 166 173 177 184 169 75 114 150 168 196 188 220 163 140 206 254 206 163 194 192 183 202 208 197 187 189 200 206 216 223 213 223 245 238 225 252 238 173 213 232 188 186 189 225 242 223 171 171 177 167 155 145
114 100 127 112 100 167 168 157 150 157 175 188 201 186 172 199 193 163 182 178 152 166 170 160 154 112 103 139 127 159 204 112 124 159 154 150 170 178 177 177 154 146 160 163 143 148 179 199 60 107 180 255 219 167 181 140 99 252 247 211 196 196 206 214 218 216 200 213 235 239 245 256 228 159 202 230 165 204 225 229 237 238 207 187 155 130 121 110
105 38 84 109 98 196 182 155 156 172 188 184 188 179 172 201 192 157 184 287 162 170 156 147 149 124 115 200 194 176 154 118 111 119 113 107 105 96 93 99 119 137 155 157 135 139 160 160 123 141 181 264 292 151 142 98 81 262 245 216 205 203 209 218 226 226 214 206 211 220 233 244 197 158 190 204 186 211 227 223 226 234 223 170 138 129 116 98
Height
745 747 749 751 753 755 757 760 762 763 765 766 768 769 770 772 774 775 775 776 778 779 780 782 783 784 785 786 787 788 790 789 788 787 786 785 784 785 785 786 787 788 788 788 789 789 789 789 789 789 790 794 799 801 801 803 806 807 816 825 828 834 829 823 825 823 820 818 819 824 823 821 822 824 824 823 824 824 825 825 825 825 825 825 824 824 825 827
744 746 748 750 752 754 756 759 760 762 764 766 768 768 770 772 773 775 775 776 777 778 780 781 783 783 784 785 787 788 790 788 787 785 783 783 783 784 784 785 786 787 787 788 788 788 788 789 789 789 791 797 803 802 803 805 806 812 822 826 826 827 821 818 818 818 819 817 817 822 824 823 821 823 823 823 825 826 826 824 825 824 823 824 824 824 825 826
743 745 747 749 751 753 755 758 759 762 764 765 767 768 770 771 773 774 775 776 776 778 779 781 782 782 783 784 786 789 789 788 787 783 780 781 783 783 784 784 785 786 787 787 787 787 787 787 787 789 793 800 805 804 805 806 808 815 821 822 821 819 817 819 818 816 818 818 818 821 824 824 821 823 823 823 826 827 825 823 823 823 821 822 824 825 825 827
742 744 746 748 750 752 755 757 759 761 763 765 766 767 769 769 771 773 774 775 775 777 778 780 781 781 783 783 786 788 787 789 785 778 778 780 781 782 783 784 785 785 786 786 787 787 787 787 787 789 794 802 807 806 807 808 810 815 818 817 817 819 817 816 817 817 819 821 819 819 824 823 821 823 823 824 826 826 823 819 818 817 817 820 824 825 825 827
741 743 746 748 750 752 754 756 758 760 762 764 765 766 767 769 771 772 773 773 774 776 778 780 780 781 782 783 786 786 788 792 782 773 776 778 779 782 782 783 784 785 786 786 786 787 787 787 788 791 796 802 807 808 809 810 810 814 817 817 819 821 817 815 819 819 820 823 820 820 821 821 821 823 823 823 822 821 817 814 814 813 814 818 821 824 825 827
741 743 745 747 749 751 753 755 757 759 761 763 765 766 767 768 770 771 772 772 774 776 777 778 779 780 781 783 786 784 787 789 778 773 776 776 779 781 781 783 783 784 785 786 786 786 787 788 790 794 797 802 807 809 810 812 812 813 817 818 821 822 816 817 821 820 821 820 818 818 818 820 821 821 824 823 817 814 813 814 814 814 816 817 819 822 824 826
740 742 744 746 749 751 753 755 756 758 761 762 764 765 766 767 769 770 770 772 773 775 776 777 779 780 781 783 784 784 785 781 774 775 776 776 779 780 781 783 783 784 785 785 786 787 789 790 792 796 798 803 808 809 810 812 812 812 815 816 820 823 819 821 822 821 821 817 817 820 818 820 819 820 827 822 812 812 814 815 815 814 816 817 819 821 822 823
739 741 743 746 748 750 752 754 756 758 760 762 764 765 765 766 767 769 769 771 773 774 775 777 778 779 781 783 782 785 785 779 775 776 776 777 779 780 781 782 782 784 784 785 786 786 788 790 794 796 799 803 805 808 811 812 813 812 814 816 819 822 821 823 823 821 821 819 821 820 818 821 822 823 825 817 810 812 815 815 815 815 817 818 818 820 821 822
738 740 743 745 747 749 751 753 755 757 760 762 763 764 765 765 766 768 769 771 772 774 775 776 777 779 781 781 781 785 782 776 775 776 777 778 779 780 781 781 782 783 784 785 785 785 788 791 793 793 797 803 804 807 810 812 814 812 814 817 817 820 822 822 821 819 820 820 821 818 819 822 825 826 819 812 812 814 815 814 815 816 817 818 818 818 819 820
738 740 742 744 746 749 751 753 755 757 759 761 763 764 764 764 765 767 769 770 772 773 774 775 776 778 780 779 782 785 778 774 776 776 777 778 779 780 780 781 782 783 784 785 785 785 786 788 790 790 793 800 804 809 811 810 812 813 816 818 818 821 822 821 818 819 820 820 820 817 819 822 824 826 816 811 815 815 814 814 816 816 816 817 817 818 818 819
737 740 742 744 746 748 750 752 754 756 759 760 762 762 763 763 764 767 768 770 772 773 773 774 775 777 778 778 781 782 775 774 777 776 778 779 779 780 781 782 782 783 783 784 785 784 784 785 786 789 793 799 804 811 812 810 811 814 816 817 820 822 821 821 819 820 820 819 821 818 818 821 823 823 814 811 816 815 812 812 816 815 815 818 818 818 819 818
737 739 741 743 745 748 750 752 754 756 758 759 761 761 762 762 764 766 768 769 771 772 772 773 775 776 777 779 779 777 774 775 776 776 778 779 779 780 781 782 782 783 783 784 784 783 784 784 784 789 795 798 805 810 810 811 814 815 816 816 821 821 819 822 822 823 821 819 822 821 821 822 821 817 810 813 817 815 814 812 814 814 815 818 818 819 818 817
736 739 741 743 745 747 749 751 754 755 757 758 760 761 761 762 764 766 767 769 769 771 772 772 774 775 777 779 776 774 774 775 775 777 778 778 779 779 780 781 781 782 782 783 783 783 784 783 785 791 795 799 806 808 807 812 815 816 819 819 822 823 821 824 825 824 821 822 823 823 825 820 815 813 810 816 818 814 813 812 812 813 814 817 818 818 817 817
735 738 740 743 745 747 749 751 753 755 756 758 759 760 761 761 763 765 766 768 768 770 771 772 774 775 777 777 773 773 774 775 775 776 777 777 778 778 780 780 781 782 782 782 783 784 784 785 786 791 797 801 804 806 808 814 817 819 822 825 832 830 824 825 828 825 821 824 823 822 827 819 810 810 812 817 817 814 812 810 812 813 812 814 816 817 816 815
735 738 740 742 745 747 749 751 753 754 756 757 758 759 760 761 763 764 766 767 767 769 770 772 774 775 778 776 772 773 774 774 775 775 776 777 777 778 779 780 781 782 782 782 783 784 785 786 788 795 802 803 804 807 813 817 820 826 825 830 841 835 825 825 829 828 822 824 824 823 827 821 811 809 813 818 817 814 811 809 812 812 812 812 813 814 813 812
734 737 739 742 744 746 749 751 752 754 755 757 758 759 760 761 763 764 766 766 767 769 770 773 773 774 777 775 772 773 773 773 774 774 775 776 776 777 779 780 781 781 782 784 784 785 786 788 795 801 803 805 807 809 817 823 826 831 829 829 838 835 828 827 828 831 828 825 824 824 825 819 811 809 813 819 817 815 813 810 811 810 810 810 810 811 810 809
734 736 739 741 743 746 748 750 752 753 755 756 757 758 759 761 763 764 766 767 768 769 771 772 773 774 775 773 772 772 772 772 772 773 774 775 776 777 778 780 782 783 783 784 786 787 788 793 801 805 805 811 813 810 820 831 830 833 834 832 838 838 833 828 826 830 830 826 825 826 826 818 810 809 811 815 816 815 812 809 809 808 808 807 808 808 808 807
734 736 738 740 743 745 747 750 751 753 754 756 757 758 760 762 763 765 767 767 768 771 773 773 774 778 776 771 771 771 770 771 772 773 774 775 776 777 778 780 782 784 785 788 789 790 793 798 803 805 809 814 814 811 819 828 826 827 831 829 833 838 837 832 827 830 830 826 826 828 828 820 812 811 808 811 816 814 811 811 810 809 807 805 806 805 804 805
733 735 738 740 742 745 747 749 751 752 754 756 757 758 761 763 765 766 767 767 767 771 774 772 771 775 773 768 768 769 769 771 771 773 774 775 776 777 778 780 783 785 789 793 793 794 797 801 806 808 812 814 812 810 812 816 816 818 825 824 824 827 831 833 829 832 833 827 827 827 826 822 814 812 808 807 814 814 811 812 810 808 806 804 804 803 803 803
732 735 737 739 742 744 746 748 751 752 754 755 756 758 760 762 766 770 770 768 766 768 769 767 766 768 767 767 768 768 769 771 772 773 774 775 776 777 780 782 785 788 792 795 796 799 801 803 808 809 809 810 810 813 814 817 818 819 825 826 826 825 823 828 830 833 835 827 827 831 829 825 819 814 810 808 813 814 809 807 805 803 802 801 800 799 799 798
731 734 737 739 741 743 745 747 750 752 753 754 755 755 754 755 760 765 768 768 767 767 767 766 766 766 766 767 767 766 768 771 773 774 775 776 775 779 784 786 788 794 798 800 799 800 802 806 808 805 807 809 812 818 817 820 822 822 824 824 828 830 824 827 831 833 836 828 828 837 832 824 819 812 809 808 809 806 803 801 800 799 799 799 798 796 795 793
731 734 736 739 741 743 745 747 750 752 753 754 754 754 751 750 752 755 760 765 765 766 766 766 766 766 766 766 767 766 767 772 776 775 775 776 776 780 786 788 791 797 801 801 801 804 807 807 805 807 812 814 819 821 815 817 822 823 828 826 826 831 829 830 832 833 836 829 827 835 831 819 815 812 807 806 805 801 801 801 799 798 797 796 795 794 793 791
730 733 736 738 740 743 745 747 749 751 752 753 753 753 751 750 752 752 756 761 765 766 766 765 766 767 767 767 767 767 766 772 776 776 775 776 778 782 785 789 793 798 801 799 799 807 811 806 806 812 813 811 817 821 815 817 823 824 827 824 825 833 830 825 829 834 837 835 833 833 829 818 812 810 803 804 808 805 803 803 801 801 798 794 794 794 794 791
729 732 736 737 740 743 744 747 750 752 752 752 752 751 750 750 752 753 756 762 766 766 765 765 766 766 767 766 766 767 769 772 774 774 775 775 780 783 784 789 794 798 800 798 799 804 805 809 815 815 812 809 814 820 816 814 821 826 825 820 822 827 827 826 830 834 836 839 839 831 823 814 809 807 799 801 810 804 801 801 796 798 800 797 795 793 793 792
728 732 735 737 740 742 745 748 749 751 751 752 751 749 750 750 752 753 756 765 769 767 766 765 766 766 764 765 766 767 769 771 773 774 774 775 778 783 786 789 792 797 802 802 803 802 803 814 818 812 813 812 812 817 816 813 819 825 822 817 816 816 821 829 831 831 830 832 840 838 825 814 808 804 797 798 802 795 796 798 790 791 795 795 793 789 791 792
727 731 734 737 740 741 746 747 748 750 751 751 748 748 750 749 753 753 756 771 774 768 768 767 766 765 763 766 767 768 772 773 773 774 774 775 776 779 785 791 792 798 803 803 804 805 808 817 816 810 813 814 813 816 816 816 820 822 821 821 821 818 820 825 824 826 828 831 843 846 833 823 813 800 796 802 801 792 793 794 790 790 792 791 791 789 790 790
726 730 733 736 739 740 743 744 746 750 750 748 745 748 750 749 753 751 760 785 781 763 766 769 767 763 762 767 766 769 776 775 774 775 775 775 776 777 784 791 792 797 802 802 803 807 810 815 815 812 812 814 815 814 814 817 817 819 825 826 822 818 820 824 822 825 833 835 841 843 835 833 824 807 806 812 804 792 790 790 789 790 791 790 790 790 790 789
726 729 732 736 737 739 740 742 745 746 744 743 744 749 749 750 754 751 767 793 779 757 762 767 764 762 763 768 767 770 775 772 773 778 776 775 777 777 782 789 790 794 801 800 803 808 809 809 810 810 811 813 814 814 817 815 812 822 835 834 826 824 825 827 825 829 840 840 834 837 838 836 825 809 811 816 805 795 792 791 791 791 792 791 789 789 789 788
726 728 732 735 737 739 741 741 744 744 742 742 745 748 749 751 753 756 775 786 765 753 760 762 763 765 767 769 770 772 773 773 775 777 777 777 777 778 783 790 791 796 802 799 799 807 811 812 810 807 805 808 816 825 826 815 812 829 841 835 831 834 833 832 831 831 840 840 832 838 843 836 822 804 805 811 804 799 796 793 793 793 793 793 791 790 788 788
725 728 731 734 736 739 741 742 744 743 742 743 745 748 749 752 756 769 788 776 752 756 764 762 764 767 769 772 775 776 775 777 778 777 779 779 778 781 786 791 792 796 801 801 803 809 814 816 815 811 809 813 821 830 832 824 823 831 831 825 826 831 832 834 838 835 838 840 838 849 852 842 829 807 799 804 800 797 796 793 793 792 791 792 791 790 788 788
724 727 731 733 735 737 739 742 743 742 743 743 745 748 749 756 765 778 783 759 746 763 768 766 768 767 768 770 774 778 778 780 780 777 780 782 782 784 787 791 793 798 804 803 806 812 813 812 813 815 818 821 819 823 831 833 832 828 820 820 825 831 834 836 840 840 840 840 843 859 861 849 836 811 796 800 798 798 798 793 792 790 789 791 790 790 789 789
723 727 730 733 734 737 739 741 741 742 743 741 745 747 750 766 774 770 764 749 747 761 762 762 768 767 767 766 770 777 778 780 780 778 780 783 785 785 785 787 790 800 809 808 808 811 809 809 813 815 820 819 810 816 830 832 829 824 820 823 828 838 844 841 845 850 845 844 851 862 859 847 835 812 796 797 794 796 799 794 792 791 791 792 792 790 789 789
723 726 730 733 734 736 738 740 741 741 740 741 745 747 755 772 770 756 755 751 749 755 755 757 764 766 766 767 772 777 776 778 780 779 781 782 785 787 785 786 786 790 800 807 810 812 810 812 814 811 814 815 807 811 823 826 825 822 820 821 825 839 848 846 855 861 849 846 857 866 857 841 828 810 797 794 792 794 797 795 795 796 796 797 798 796 791 791
724 727 730 733 734 736 738 739 740 739 739 741 744 751 762 766 754 745 751 753 753 757 756 757 763 767 766 767 771 772 772 779 781 779 783 784 787 789 786 787 788 785 793 806 810 810 811 811 809 807 809 810 808 809 812 815 820 824 824 822 820 826 832 835 843 841 837 845 858 862 847 824 811 802 796 796 797 800 799 798 800 800 799 798 800 800 795 793
725 728 730 733 734 736 737 738 739 738 739 740 745 755 759 751 743 743 747 750 755 758 758 759 763 768 770 770 772 770 769 777 782 781 783 784 785 786 782 783 788 786 788 800 807 808 809 807 806 812 813 809 807 811 811 810 817 829 831 824 820 817 819 840 856 850 847 849 849 850 837 817 807 798 796 801 801 800 798 798 798 796 796 796 794 794 793 792
724 728 730 732 733 734 736 736 737 738 738 740 748 754 746 736 739 742 740 744 751 754 759 764 765 768 773 774 774 772 768 773 781 783 783 784 781 781 778 776 782 783 778 786 800 806 806 808 811 814 814 812 812 813 812 809 812 825 828 822 825 825 821 838 863 871 864 846 836 841 828 815 812 797 789 796 794 793 793 793 794 793 793 793 789 789 792 791
723 726 729 731 732 734 735 734 736 737 738 741 746 744 736 734 739 740 738 742 746 748 753 760 764 766 769 773 773 771 768 772 780 781 782 785 779 775 777 774 775 778 774 778 789 794 798 806 815 813 810 815 820 816 813 815 814 818 821 819 825 831 825 825 838 854 861 845 834 839 829 817 816 802 789 790 788 785 787 789 793 793 790 789 789 790 792 792
720 724 728 730 731 733 734 734 736 737 740 744 741 737 735 736 740 741 740 741 743 745 747 753 758 760 763 767 769 770 767 769 777 779 779 783 774 766 770 772 772 774 774 775 780 784 788 798 814 820 815 816 819 814 812 819 820 816 816 817 818 821 824 828 831 835 845 844 834 836 840 831 819 804 789 786 786 781 782 789 792 791 788 788 791 792 792 792
719 723 728 730 730 732 732 733 735 737 743 743 738 736 736 736 741 745 743 740 738 740 744 748 753 758 761 762 763 767 767 766 774 776 773 776 771 763 763 764 768 774 775 773 776 782 787 792 807 821 820 816 815 811 809 815 821 820 819 820 819 818 820 826 830 828 829 838 836 830 829 820 809 804 791 781 783 779 778 787 789 788 787 789 792 793 791 791
719 722 729 730 729 730 731 733 737 741 742 738 733 736 737 735 741 745 744 742 738 739 742 744 750 755 759 761 761 764 766 766 771 770 766 769 767 764 763 760 764 773 775 774 775 781 787 789 800 818 823 817 812 810 807 806 813 818 817 819 821 824 827 825 830 834 826 829 836 830 819 806 798 800 790 778 781 781 781 784 786 787 788 790 794 793 791 791
721 724 729 730 728 729 730 733 739 741 740 736 733 735 736 735 739 743 744 744 742 743 743 742 746 750 753 759 759 760 765 768 770 768 765 765 763 760 760 757 760 769 775 778 776 778 785 789 800 817 820 813 808 812 813 808 807 808 808 811 813 816 823 821 826 838 833 828 832 831 821 804 792 793 791 785 786 786 785 784 786 789 789 791 794 793 792 792
724 727 730 729 728 729 730 734 739 739 737 737 735 735 736 737 738 740 743 743 742 745 746 743 745 748 749 752 754 757 761 765 768 767 761 761 758 755 756 757 759 763 768 773 774 776 783 790 801 812 813 810 811 819 825 817 809 808 806 808 808 807 809 809 814 828 835 836 839 839 827 802 789 795 796 792 792 791 788 786 785 788 791 792 794 793 793 794
727 730 730 728 729 729 730 736 739 739 739 739 737 737 738 738 738 740 742 742 741 743 744 742 744 745 746 749 752 754 756 759 764 763 757 758 757 756 758 758 759 761 764 768 772 776 781 784 794 807 810 810 811 816 821 818 812 809 808 808 809 806 803 804 810 818 824 828 831 837 829 801 787 797 797 794 796 794 792 790 786 787 791 792 792 792 793 794
730 731 731 730 730 730 733 736 735 736 742 742 738 739 740 739 738 739 739 739 740 742 740 740 743 743 744 748 749 749 751 753 757 758 757 756 756 759 761 759 758 759 759 761 763 768 774 778 788 804 812 811 812 814 813 812 811 807 805 807 807 805 809 813 816 819 818 817 817 821 817 797 787 795 795 793 795 792 791 792 790 789 790 791 793 794 795 796
733 734 734 732 731 732 736 738 735 737 742 740 738 739 740 740 740 740 738 739 742 741 739 740 743 743 745 748 747 748 750 749 750 754 758 757 758 763 764 761 759 757 756 758 756 760 770 776 780 790 801 804 804 802 795 796 805 807 804 807 807 807 809 807 811 816 813 815 818 809 800 795 791 791 790 790 792 791 791 793 792 791 790 792 796 796 796 798
734 735 735 735 735 736 739 740 739 741 741 737 737 739 738 738 741 742 739 739 743 743 740 742 743 743 744 747 747 748 750 753 753 752 754 756 758 764 766 764 762 760 759 759 758 761 770 775 774 774 779 779 778 779 779 782 794 801 801 804 807 807 804 802 809 812 806 814 820 803 792 794 793 789 789 789 789 789 789 789 790 789 788 792 797 796 796 798
732 733 734 735 737 739 742 743 742 742 739 735 734 737 737 737 740 741 740 739 741 741 741 743 742 740 741 743 745 746 748 753 756 753 755 759 761 766 769 766 763 763 762 760 760 763 768 772 773 771 769 768 768 773 777 778 782 789 795 800 804 805 803 803 804 798 796 810 810 795 793 797 791 787 787 786 786 787 785 785 786 786 787 791 795 794 794 794
731 732 732 732 733 736 738 741 743 742 739 736 734 734 737 738 738 738 740 741 742 740 739 742 741 739 739 739 740 745 749 753 754 754 759 763 763 764 764 764 765 765 763 763 763 763 765 768 771 772 771 771 773 777 779 776 776 781 789 793 798 802 803 802 798 790 793 800 790 784 793 792 785 785 781 779 782 781 779 782 785 787 788 790 792 791 791 792
732 733 733 733 733 735 736 737 742 743 741 740 739 738 737 736 735 737 739 741 743 742 739 738 739 740 741 740 737 741 747 749 749 753 758 761 762 762 761 761 765 767 764 763 765 766 764 764 768 773 772 771 776 781 780 778 776 780 786 790 793 797 797 794 791 785 788 789 780 783 792 784 778 780 775 774 780 781 781 784 784 784 787 788 789 789 790 793
732 732 733 733 735 737 737 738 741 743 742 742 741 739 738 736 735 736 738 737 739 742 741 739 740 741 743 744 741 741 744 743 743 747 753 756 757 758 757 754 759 767 766 762 766 767 765 767 772 774 773 773 777 781 782 782 780 779 784 790 794 797 796 792 787 782 787 791 785 789 796 785 778 778 774 774 781 783 784 783 779 781 786 787 787 789 791 794
731 731 731 733 735 736 736 736 738 740 741 741 740 738 738 738 735 734 736 734 734 737 740 741 742 743 745 745 743 744 747 745 743 745 749 750 751 753 754 752 755 762 763 763 766 765 765 771 775 775 774 773 776 781 786 790 790 786 786 788 791 793 790 787 783 780 785 788 788 795 795 781 774 776 776 778 781 781 779 778 776 779 783 783 783 785 789 792
731 731 731 731 733 735 734 733 735 736 735 735 736 735 735 737 735 735 737 736 733 734 737 738 739 741 745 746 744 745 747 747 747 750 752 753 754 755 755 756 757 758 760 763 765 765 766 767 770 774 773 772 782 789 788 790 795 791 781 776 778 782 781 781 783 782 781 781 784 788 780 769 770 775 776 779 781 777 774 774 775 777 781 784 785 787 790 793